Regional Weather Roundup
Issued by NWS

Home | Current Version | Previous Version | Graphics & Text | Print | Product List | Glossary On
Versions: 1 2 3 4 5 6 7 8 9 10 11 12 13 14 15 16 17 18 19 20 21 22 23 24 25 26 27 28 29 30 31 32 33 34 35 36 37 38 39 40 41 42 43 44 45 46 47 48 49 50
000
ASUS43 KDTX 201110
RWRMI
MICHIGAN HOURLY REGIONAL WEATHER ROUNDUP
NATIONAL WEATHER SERVICE DETROIT/PONTIAC MI
700 AM EDT WED AUG 20 2014

NOTE: "FAIR" INDICATES FEW OR NO CLOUDS BELOW 12,000 FEET WITH NO
SIGNIFICANT WEATHER AND/OR OBSTRUCTION TO VISIBILITY.

MIZ047>049-052>055-059>063-066>070-074>076-081>083-201200-
SOUTHEAST LOWER MICHIGAN

CITY           SKY/WX    TMP DP  RH WIND       PRES   REMARKS
ADRIAN         FOG       64  64 100 W3        29.84R VSB 1/2
ALMA           FOG       66  65  96 CALM      29.81R VSB 1/4
ANN ARBOR      CLOUDY    65  63  93 SW5       29.82R FOG
BAD AXE        CLOUDY    65  65 100 CALM      29.82R FOG
DETROIT CITY   MOCLDY    69  65  86 CALM      29.81R
DETROIT        MOCLDY    66  65  96 S5        29.81S FOG
FLINT          CLOUDY    67  63  87 SW3       29.81R
GROSSE ILE     PTCLDY    68  64  88 CALM      29.81R FOG
HILLSDALE      CLOUDY    66  66 100 W3        29.84R FOG
HOWELL         CLOUDY    64  64  98 CALM      29.82R FOG

CITY           SKY/WX    TMP DP  RH WIND       PRES   REMARKS
JACKSON        CLOUDY    66  64  93 CALM      29.82R FOG
LAMBERTVILLE   PTCLDY    68  64  88 SW6       29.82R
LANSING        CLOUDY    66  64  93 SW6       29.82R FOG
LAPEER         NOT AVBL
MASON          MOCLDY    64  63  97 CALM      29.82R FOG
MONROE         FOG       64  64 100 CALM      29.80R VSB 1/2
MT. CLEMENS    CLOUDY    67  67  99 S2        29.81R
PONTIAC        CLOUDY    65  63  93 CALM      29.81R
PORT HOPE        N/A     67  64  90 CALM      29.79R
PORT HURON     FOG       64  64 100 CALM      29.82R VSB 3/4
TRI CITIES     FOG       68  66  93 SE5       29.81R VSB 1/2
YPSILANTI      MOCLDY    69  64  84 SW5       29.82R HAZE
$$
MIZ043>046-050>051-056>058-064>065-071>073-077>080-201200-
SOUTHWEST LOWER MICHIGAN

CITY           SKY/WX    TMP DP  RH WIND       PRES   REMARKS
BATTLE CREEK   FOG       65  64  97 S5        29.84R VSB 1/4
BENTON HARBOR  CLOUDY    64  63  96 CALM      29.83R
BIG RAPIDS     CLOUDY    65  65 100 CALM      29.80R FOG
COLDWATER      PTCLDY    65  64  97 W6        29.84R FOG
HOLLAND        PTCLDY    63  62  97 S3        29.83R FOG
GRAND RAPIDS   PTCLDY    65  65 100 W6        29.82R FOG
KALAMAZOO      CLEAR     65  64  97 SW3       29.83R FOG
MARSHALL       FOG       65  65  99 W9        29.82R VSB 3/4
MUSKEGON       PTCLDY    63  60  90 CALM      29.81R FOG
$$
MIZ016>042-201200-
NORTHERN LOWER MICHIGAN

CITY           SKY/WX    TMP DP  RH WIND       PRES   REMARKS
ALPENA         CLOUDY    65  64  97 CALM      29.78R
BEAVER ISLAND  FOG       62  62  99 E5        29.77R VSB 1
BELLAIRE       CLOUDY    65  62  89 SW5       29.77R
CADILLAC       CLOUDY    62  62 100 SW3       29.80R FOG
CHARLEVOIX     CLOUDY    64  64 100 W6        29.80R FOG
FRANKFORT      CLOUDY    64  61  91 NW3       29.80R FOG
GAYLORD        CLOUDY    64  63  96 W6        29.80R FOG
GRAYLING       MOCLDY    64  64 100 CALM      29.80R FOG
HARBOR SPRINGS FOG       64  63  96 W5        29.77R VSB 3/4
HOUGHTON LAKE  CLOUDY    66  64  93 SW6       29.81R
MANISTEE       CLOUDY    63  61  94 W5        29.80R
OSCODA         CLOUDY    66  66 100 SW5       29.79R FOG
PELLSTON       CLOUDY    61  60  97 NE3       29.78R
TRAVERSE CITY  CLOUDY    66  62  87 W8        29.77R
$$
MIZ007>008-015-201200-
EASTERN UPPER MICHIGAN

CITY           SKY/WX    TMP DP  RH WIND       PRES   REMARKS
KINROSS        CLOUDY    61  59  94 CALM      29.78R VSB<1/4
MACKINAC ISLAN FOG       59  59 100 NE5       29.78R VSB<1/4
NEWBERRY       FOG       58  58 100 CALM      29.78R VSB 1/4
S. S. MARIE    FOG       61  60  97 CALM      29.78R VSB 3/4
$$
MIZ004>006-011>014-085-201200-
CENTRAL UPPER MICHIGAN

CITY           SKY/WX    TMP DP  RH WIND       PRES   REMARKS
MANISTIQUE     CLOUDY    59  58  99 N7        29.77R
ESCANABA       CLOUDY    61  57  88 CALM      29.80R
MENOMINEE      CLOUDY    61  59  94 CALM      29.80R
SAWYER-GWINN   LGT RAIN  57  57 100 NW3       29.81R
$$
MIZ001>003-009>011-084-201200-
WESTERN UPPER MICHIGAN

CITY           SKY/WX    TMP DP  RH WIND       PRES   REMARKS
IRON MOUNTAIN  CLOUDY    59  56  89 NW5       29.82R
HOUGHTON       FOG       56  55  97 NW6       29.82R VSB 1/4
COPPER HARBOR    N/A     56  54  93 N10       29.80R
IRONWOOD       CLOUDY    55  55 100 W3        29.83R VSB 3/4
$$

ABBREVIATIONS USED IN REMARKS
   TC - TEMPERATURE IN CELSIUS
  WCI - WIND CHILL INDEX
   HX - HEAT INDEX
  VSB - VISIBILITY



USA.gov is the U.S. government's official web portal to all federal, state and local government web resources and services.